| time (UTC) | temp F | wind direction | speed knots | gust knots | rain 1hr in | rain 24hr in | rain mn in | humidity % | barometer mb |
| 20260503053058 | 76 | 180 | 0.9 | 3.5 | 0.00 | 0.00 | 0.00 | 84 | 1012.2 |
| 20260503052556 | 76 | 158 | 0.9 | 2.6 | 0.00 | 0.00 | 0.00 | 84 | 1012.4 |
| 20260503052055 | 76 | 158 | 0.9 | 2.6 | 0.00 | 0.00 | 0.00 | 84 | 1012.6 |
| 20260503051600 | 76 | 0 | 0.9 | 3.5 | 0.00 | 0.00 | 0.00 | 84 | 1012.6 |
| 20260503051055 | 77 | 232 | 0.9 | 3.5 | 0.00 | 0.00 | 0.00 | 84 | 1012.6 |
| 20260503050559 | 77 | 183 | 1.7 | 3.5 | 0.00 | 0.00 | 0.00 | 84 | 1012.7 |
| 20260503050057 | 77 | 173 | 0.9 | 4.3 | 0.00 | 0.00 | 0.00 | 85 | 1012.7 |
| 20260503045557 | 77 | 189 | 0.9 | 4.3 | 0.00 | 0.00 | 0.00 | 85 | 1012.7 |
| 20260503045056 | 77 | 214 | 0.9 | 3.5 | 0.00 | 0.00 | 0.00 | 85 | 1012.9 |
| 20260503044558 | 77 | 0 | 0.9 | 5.2 | 0.00 | 0.00 | 0.00 | 85 | 1012.9 |
| 20260503044103 | 77 | 190 | 1.7 | 5.2 | 0.00 | 0.00 | 0.00 | 85 | 1012.8 |
| 20260503043556 | 77 | 247 | 1.7 | 5.2 | 0.00 | 0.00 | 0.00 | 85 | 1012.8 |
| 20260503043057 | 77 | 248 | 1.7 | 6.1 | 0.00 | 0.00 | 0.00 | 85 | 1012.8 |
| 20260503042556 | 77 | 199 | 2.6 | 6.1 | 0.00 | 0.00 | 0.00 | 85 | 1012.7 |
| 20260503042059 | 77 | 171 | 1.7 | 6.1 | 0.00 | 0.00 | 0.00 | 85 | 1012.6 |
| 20260503041559 | 78 | 150 | 1.7 | 6.1 | 0.00 | 0.00 | 0.00 | 84 | 1012.8 |
| 20260503041055 | 78 | 200 | 0.0 | 4.3 | 0.00 | 0.00 | 0.00 | 84 | 1012.7 |
| 20260503040555 | 78 | 223 | 1.7 | 4.3 | 0.00 | 0.00 | 0.00 | 84 | 1012.7 |
| 20260503040059 | 78 | 260 | 1.7 | 3.5 | 0.00 | 0.00 | 0.00 | 84 | 1012.6 |
| 20260503035557 | 78 | 193 | 0.0 | 3.5 | 0.00 | 0.00 | 0.00 | 84 | 1012.5 |
| 20260503035059 | 78 | 250 | 0.9 | 4.3 | 0.00 | 0.00 | 0.00 | 84 | 1012.7 |
| 20260503034600 | 78 | 240 | 1.7 | 4.3 | 0.00 | 0.00 | 0.00 | 84 | 1012.5 |
| 20260503034057 | 78 | 241 | 0.9 | 6.1 | 0.00 | 0.00 | 0.00 | 83 | 1012.5 |
| 20260503033556 | 78 | 0 | 0.9 | 6.1 | 0.00 | 0.00 | 0.00 | 83 | 1012.5 |
| 20260503033101 | 78 | 269 | 2.6 | 4.3 | 0.00 | 0.00 | 0.00 | 83 | 1012.4 |
| 20260503032600 | 78 | 232 | 0.9 | 3.5 | 0.00 | 0.00 | 0.00 | 82 | 1012.3 |
| 20260503032056 | 78 | 223 | 1.7 | 3.5 | 0.00 | 0.00 | 0.00 | 82 | 1012.1 |
| 20260503031600 | 78 | 142 | 0.0 | 3.5 | 0.00 | 0.00 | 0.00 | 82 | 1012.1 |
| 20260503031056 | 78 | 209 | 0.9 | 4.3 | 0.00 | 0.00 | 0.00 | 81 | 1012.0 |
| 20260503030556 | 79 | 213 | 0.9 | 4.3 | 0.00 | 0.00 | 0.00 | 81 | 1012.0 |
| 20260503025559 | 79 | 256 | 0.9 | 7.0 | 0.00 | 0.00 | 0.00 | 80 | 1012.1 |
| 20260503025056 | 79 | 254 | 1.7 | 7.0 | 0.00 | 0.00 | 0.00 | 80 | 1012.2 |
| 20260503024605 | 79 | 0 | 1.7 | 6.1 | 0.00 | 0.00 | 0.00 | 80 | 1012.1 |
| 20260503024056 | 79 | 259 | 0.9 | 6.1 | 0.00 | 0.00 | 0.00 | 79 | 1012.1 |
| 20260503023555 | 79 | 0 | 1.7 | 7.0 | 0.00 | 0.00 | 0.00 | 79 | 1012.1 |
| 20260503023103 | 79 | 259 | 1.7 | 7.0 | 0.00 | 0.00 | 0.00 | 78 | 1012.1 |
| 20260503022556 | 79 | 254 | 0.9 | 6.1 | 0.00 | 0.00 | 0.00 | 78 | 1012.0 |
| 20260503022056 | 79 | 214 | 1.7 | 6.1 | 0.00 | 0.00 | 0.00 | 77 | 1012.0 |
| 20260503021600 | 80 | 196 | 1.7 | 5.2 | 0.00 | 0.00 | 0.00 | 77 | 1011.9 |
| 20260503021129 | 80 | 257 | 1.7 | 6.1 | 0.00 | 0.00 | 0.00 | 76 | 1011.9 |
| 20260503020556 | 80 | 305 | 1.7 | 6.1 | 0.00 | 0.00 | 0.00 | 76 | 1011.8 |
| 20260503020101 | 80 | 157 | 0.9 | 5.2 | 0.00 | 0.00 | 0.00 | 76 | 1011.7 |
| 20260503015559 | 80 | 150 | 1.7 | 6.1 | 0.00 | 0.00 | 0.00 | 75 | 1011.8 |
| 20260503015059 | 80 | 227 | 1.7 | 8.7 | 0.00 | 0.00 | 0.00 | 75 | 1011.7 |
| 20260503014624 | 80 | 109 | 3.5 | 8.7 | 0.00 | 0.00 | 0.00 | 75 | 1011.7 |
| 20260503014056 | 80 | 263 | 3.5 | 7.0 | 0.00 | 0.00 | 0.00 | 74 | 1011.7 |
| 20260503013556 | 81 | 232 | 2.6 | 7.8 | 0.00 | 0.00 | 0.00 | 73 | 1011.7 |
| 20260503013059 | 81 | 204 | 2.6 | 7.8 | 0.00 | 0.00 | 0.00 | 73 | 1011.7 |
| 20260503012602 | 81 | 240 | 3.5 | 9.6 | 0.00 | 0.00 | 0.00 | 72 | 1011.6 |
| 20260503012056 | 81 | 188 | 3.5 | 9.6 | 0.00 | 0.00 | 0.00 | 72 | 1011.6 |
| 20260503011625 | 81 | 211 | 2.6 | 9.6 | 0.00 | 0.00 | 0.00 | 71 | 1011.5 |
| 20260503011056 | 81 | 236 | 2.6 | 9.6 | 0.00 | 0.00 | 0.00 | 70 | 1011.4 |
| 20260503010556 | 81 | 167 | 2.6 | 7.0 | 0.00 | 0.00 | 0.00 | 70 | 1011.4 |
| 20260503010059 | 82 | 231 | 2.6 | 7.0 | 0.00 | 0.00 | 0.00 | 69 | 1011.3 |
| 20260503005559 | 82 | 211 | 1.7 | 9.6 | 0.00 | 0.00 | 0.00 | 68 | 1011.3 |
| 20260503005059 | 82 | 246 | 2.6 | 9.6 | 0.00 | 0.00 | 0.00 | 67 | 1011.2 |
| 20260503004604 | 82 | 173 | 3.5 | 7.8 | 0.00 | 0.00 | 0.00 | 67 | 1011.2 |
| 20260503004056 | 82 | 235 | 2.6 | 8.7 | 0.00 | 0.00 | 0.00 | 66 | 1011.2 |
| 20260503003556 | 83 | 247 | 3.5 | 8.7 | 0.00 | 0.00 | 0.00 | 65 | 1011.1 |
| 20260503003106 | 83 | 178 | 3.5 | 9.6 | 0.00 | 0.00 | 0.00 | 64 | 1011.0 |
| 20260503002559 | 83 | 244 | 3.5 | 10.4 | 0.00 | 0.00 | 0.00 | 63 | 1010.9 |
| 20260503002056 | 83 | 242 | 3.5 | 10.4 | 0.00 | 0.00 | 0.00 | 62 | 1011.0 |
| 20260503001559 | 84 | 245 | 3.5 | 8.7 | 0.00 | 0.00 | 0.00 | 61 | 1010.8 |
| 20260503001057 | 84 | 319 | 4.3 | 8.7 | 0.00 | 0.00 | 0.00 | 61 | 1010.7 |
| 20260503000555 | 84 | 269 | 3.5 | 7.8 | 0.00 | 0.00 | 0.00 | 60 | 1010.7 |
| 20260503000059 | 85 | 224 | 3.5 | 7.8 | 0.00 | 0.00 | 0.00 | 59 | 1010.7 |
| 20260502235558 | 85 | 287 | 2.6 | 7.8 | 0.00 | 0.00 | 0.00 | 58 | 1010.5 |
| 20260502235056 | 85 | 191 | 3.5 | 9.6 | 0.00 | 0.00 | 0.00 | 57 | 1010.4 |
| 20260502234557 | 86 | 225 | 3.5 | 9.6 | 0.00 | 0.00 | 0.00 | 56 | 1010.3 |
| 20260502234058 | 86 | 269 | 3.5 | 9.6 | 0.00 | 0.00 | 0.00 | 55 | 1010.3 |
| 20260502233555 | 86 | 263 | 4.3 | 9.6 | 0.00 | 0.00 | 0.00 | 54 | 1010.3 |
| 20260502233056 | 86 | 242 | 5.2 | 8.7 | 0.00 | 0.00 | 0.00 | 53 | 1010.2 |
| 20260502232556 | 87 | 229 | 3.5 | 8.7 | 0.00 | 0.00 | 0.00 | 53 | 1010.0 |
| 20260502232056 | 87 | 221 | 4.3 | 8.7 | 0.00 | 0.00 | 0.00 | 51 | 1009.9 |
| 20260502231558 | 87 | 240 | 2.6 | 8.7 | 0.00 | 0.00 | 0.00 | 51 | 1009.9 |
| 20260502231100 | 88 | 207 | 1.7 | 9.6 | 0.00 | 0.00 | 0.00 | 49 | 1009.8 |
| 20260502230628 | 88 | 301 | 3.5 | 9.6 | 0.00 | 0.00 | 0.00 | 48 | 1009.7 |
| 20260502230100 | 89 | 217 | 2.6 | 10.4 | 0.00 | 0.00 | 0.00 | 48 | 1009.6 |
| 20260502225558 | 89 | 242 | 3.5 | 10.4 | 0.00 | 0.00 | 0.00 | 47 | 1009.5 |
| 20260502225056 | 90 | 223 | 3.5 | 10.4 | 0.00 | 0.00 | 0.00 | 46 | 1009.4 |
| 20260502224609 | 90 | 200 | 4.3 | 10.4 | 0.00 | 0.00 | 0.00 | 45 | 1009.4 |
| 20260502224056 | 91 | 231 | 3.5 | 7.8 | 0.00 | 0.00 | 0.00 | 45 | 1009.2 |
| 20260502223557 | 91 | 295 | 2.6 | 13.0 | 0.00 | 0.00 | 0.00 | 45 | 1009.2 |
| 20260502223058 | 91 | 258 | 4.3 | 13.0 | 0.00 | 0.00 | 0.00 | 44 | 1009.1 |
| 20260502222556 | 91 | 186 | 4.3 | 12.2 | 0.00 | 0.00 | 0.00 | 44 | 1009.1 |
| 20260502222055 | 92 | 209 | 4.3 | 11.3 | 0.00 | 0.00 | 0.00 | 43 | 1009.2 |
| 20260502221558 | 92 | 157 | 3.5 | 13.0 | 0.00 | 0.00 | 0.00 | 43 | 1009.2 |
| 20260502221059 | 92 | 229 | 4.3 | 13.0 | 0.00 | 0.00 | 0.00 | 42 | 1009.2 |
| 20260502220559 | 93 | 280 | 3.5 | 11.3 | 0.00 | 0.00 | 0.00 | 43 | 1009.1 |
| 20260502220111 | 93 | 184 | 4.3 | 12.2 | 0.00 | 0.00 | 0.00 | 44 | 1009.1 |
| 20260502215558 | 93 | 226 | 5.2 | 12.2 | 0.00 | 0.00 | 0.00 | 44 | 1009.0 |
| 20260502215100 | 93 | 90 | 2.6 | 12.2 | 0.00 | 0.00 | 0.00 | 45 | 1009.0 |
| 20260502214558 | 93 | 261 | 4.3 | 11.3 | 0.00 | 0.00 | 0.00 | 43 | 1009.0 |
| 20260502214055 | 93 | 245 | 2.6 | 12.2 | 0.00 | 0.00 | 0.00 | 44 | 1008.9 |
| 20260502213600 | 93 | 241 | 3.5 | 15.6 | 0.00 | 0.00 | 0.00 | 44 | 1008.8 |
| 20260502213123 | 93 | 173 | 4.3 | 15.6 | 0.00 | 0.00 | 0.00 | 42 | 1008.9 |
| 20260502212556 | 93 | 246 | 7.8 | 15.6 | 0.00 | 0.00 | 0.00 | 42 | 1008.9 |
| 20260502212056 | 94 | 243 | 4.3 | 13.9 | 0.00 | 0.00 | 0.00 | 46 | 1008.8 |
| 20260502211637 | 94 | 277 | 3.5 | 15.6 | 0.00 | 0.00 | 0.00 | 44 | 1008.7 |
| 20260502211057 | 93 | 158 | 7.0 | 15.6 | 0.00 | 0.00 | 0.00 | 45 | 1008.8 |
| 20260502210556 | 94 | 201 | 4.3 | 13.0 | 0.00 | 0.00 | 0.00 | 43 | 1008.9 |
| 20260502210109 | 94 | 214 | 3.5 | 13.9 | 0.00 | 0.00 | 0.00 | 44 | 1008.6 |
| 20260502205558 | 94 | 208 | 5.2 | 13.9 | 0.00 | 0.00 | 0.00 | 43 | 1008.6 |
| 20260502205058 | 94 | 177 | 3.5 | 15.6 | 0.00 | 0.00 | 0.00 | 43 | 1008.7 |
| 20260502204557 | 94 | 217 | 5.2 | 15.6 | 0.00 | 0.00 | 0.00 | 44 | 1008.7 |
| 20260502204100 | 94 | 180 | 5.2 | 13.9 | 0.00 | 0.00 | 0.00 | 45 | 1008.6 |
| 20260502203558 | 94 | 211 | 5.2 | 12.2 | 0.00 | 0.00 | 0.00 | 44 | 1008.7 |
| 20260502203101 | 94 | 235 | 3.5 | 13.9 | 0.00 | 0.00 | 0.00 | 45 | 1008.7 |
| 20260502202558 | 94 | 197 | 6.1 | 13.9 | 0.00 | 0.00 | 0.00 | 44 | 1008.8 |
| 20260502202059 | 94 | 253 | 6.1 | 19.1 | 0.00 | 0.00 | 0.00 | 46 | 1008.7 |
| 20260502201605 | 94 | 250 | 5.2 | 20.9 | 0.00 | 0.00 | 0.00 | 45 | 1008.8 |
| 20260502201056 | 94 | 296 | 5.2 | 20.9 | 0.00 | 0.00 | 0.00 | 43 | 1008.9 |
| 20260502200559 | 94 | 193 | 6.1 | 14.8 | 0.00 | 0.00 | 0.00 | 44 | 1008.9 |
| 20260502200058 | 94 | 234 | 5.2 | 20.9 | 0.00 | 0.00 | 0.00 | 46 | 1008.9 |
| 20260502195600 | 93 | 194 | 7.0 | 20.9 | 0.00 | 0.00 | 0.00 | 44 | 1009.0 |
| 20260502195100 | 94 | 252 | 7.0 | 16.5 | 0.00 | 0.00 | 0.00 | 45 | 1009.0 |
| 20260502194608 | 94 | 237 | 5.2 | 16.5 | 0.00 | 0.00 | 0.00 | 48 | 1009.2 |
| 20260502194058 | 94 | 160 | 5.2 | 16.5 | 0.00 | 0.00 | 0.00 | 49 | 1009.1 |
| 20260502193604 | 94 | 178 | 6.1 | 16.5 | 0.00 | 0.00 | 0.00 | 46 | 1009.2 |
| 20260502193105 | 94 | 300 | 6.1 | 15.6 | 0.00 | 0.00 | 0.00 | 47 | 1009.3 |
| 20260502192602 | 93 | 295 | 7.0 | 18.2 | 0.00 | 0.00 | 0.00 | 46 | 1009.2 |
| 20260502192100 | 93 | 236 | 7.0 | 18.2 | 0.00 | 0.00 | 0.00 | 46 | 1009.3 |
| 20260502191604 | 94 | 234 | 4.3 | 17.4 | 0.00 | 0.00 | 0.00 | 46 | 1009.3 |
| 20260502191100 | 94 | 197 | 6.1 | 17.4 | 0.00 | 0.00 | 0.00 | 48 | 1009.3 |
| 20260502190600 | 93 | 155 | 7.0 | 17.4 | 0.00 | 0.00 | 0.00 | 48 | 1009.4 |
| 20260502190059 | 93 | 174 | 6.1 | 19.1 | 0.00 | 0.00 | 0.00 | 50 | 1009.4 |
| 20260502185628 | 93 | 217 | 8.7 | 20.0 | 0.00 | 0.00 | 0.00 | 49 | 1009.5 |
| 20260502185056 | 93 | 200 | 7.8 | 20.0 | 0.00 | 0.00 | 0.00 | 50 | 1009.4 |
| 20260502184602 | 93 | 201 | 8.7 | 17.4 | 0.00 | 0.00 | 0.00 | 51 | 1009.5 |
| 20260502184055 | 93 | 210 | 7.0 | 17.4 | 0.00 | 0.00 | 0.00 | 53 | 1009.3 |
| 20260502183556 | 92 | 169 | 10.4 | 17.4 | 0.00 | 0.00 | 0.00 | 51 | 1009.4 |
| 20260502183108 | 92 | 190 | 7.0 | 20.0 | 0.00 | 0.00 | 0.00 | 55 | 1009.4 |
| 20260502182559 | 92 | 152 | 8.7 | 20.0 | 0.00 | 0.00 | 0.00 | 54 | 1009.4 |
| 20260502182056 | 92 | 187 | 7.0 | 13.0 | 0.00 | 0.00 | 0.00 | 57 | 1009.5 |
| 20260502181557 | 92 | 160 | 6.1 | 13.9 | 0.00 | 0.00 | 0.00 | 56 | 1009.5 |
| 20260502181059 | 92 | 196 | 6.1 | 16.5 | 0.00 | 0.00 | 0.00 | 55 | 1009.8 |
| 20260502180559 | 92 | 231 | 8.7 | 16.5 | 0.00 | 0.00 | 0.00 | 59 | 1009.7 |
| 20260502164056 | 91 | 236 | 7.8 | 15.6 | 0.00 | 0.00 | 0.00 | 65 | 1010.0 |
| 20260502163556 | 91 | 214 | 6.1 | 14.8 | 0.00 | 0.00 | 0.00 | 65 | 1010.1 |
| 20260502163059 | 91 | 178 | 7.0 | 18.2 | 0.00 | 0.00 | 0.00 | 66 | 1010.1 |
| 20260502162556 | 90 | 168 | 6.1 | 18.2 | 0.00 | 0.00 | 0.00 | 67 | 1010.2 |
| 20260502162055 | 90 | 128 | 7.0 | 16.5 | 0.00 | 0.00 | 0.00 | 67 | 1010.3 |
| 20260502161602 | 90 | 151 | 6.1 | 14.8 | 0.00 | 0.00 | 0.00 | 67 | 1010.2 |
| 20260502161058 | 90 | 150 | 7.0 | 14.8 | 0.00 | 0.00 | 0.00 | 68 | 1010.3 |
| 20260502160555 | 89 | 174 | 4.3 | 12.2 | 0.00 | 0.00 | 0.00 | 69 | 1010.2 |
| 20260502152056 | 88 | 144 | 7.8 | 13.9 | 0.00 | 0.00 | 0.00 | 70 | 1010.7 |
| 20260502151607 | 88 | 195 | 4.3 | 13.9 | 0.00 | 0.00 | 0.00 | 68 | 1010.6 |
| 20260502151056 | 88 | 225 | 6.1 | 13.9 | 0.00 | 0.00 | 0.00 | 68 | 1010.6 |
| 20260502150555 | 88 | 115 | 4.3 | 14.8 | 0.00 | 0.00 | 0.00 | 67 | 1010.5 |
| 20260502130555 | 82 | 94 | 4.3 | 13.9 | 0.00 | 0.00 | 0.00 | 82 | 1010.3 |
| 20260502130110 | 81 | 157 | 6.1 | 13.9 | 0.00 | 0.00 | 0.00 | 83 | 1010.4 |
| 20260502123559 | 78 | 144 | 4.3 | 8.7 | 0.00 | 0.00 | 0.00 | 91 | 1010.3 |
| 20260502123058 | 77 | 147 | 0.9 | 4.3 | 0.00 | 0.00 | 0.00 | 92 | 1010.4 |
| 20260502122555 | 76 | 83 | 0.9 | 4.3 | 0.00 | 0.00 | 0.00 | 92 | 1010.4 |
| 20260502122058 | 76 | 175 | 0.0 | 3.5 | 0.00 | 0.00 | 0.00 | 93 | 1010.4 |
| 20260502121558 | 76 | 139 | 0.0 | 4.3 | 0.00 | 0.00 | 0.00 | 93 | 1010.3 |
| 20260502121056 | 75 | 123 | 0.9 | 4.3 | 0.00 | 0.00 | 0.00 | 93 | 1010.3 |
| 20260502120559 | 75 | 130 | 0.9 | 2.6 | 0.00 | 0.00 | 0.00 | 93 | 1010.4 |
| 20260502115555 | 74 | 0 | 0.9 | 2.6 | 0.00 | 0.00 | 0.00 | 93 | 1010.3 |
| 20260502115055 | 74 | 130 | 0.9 | 3.5 | 0.00 | 0.00 | 0.00 | 93 | 1010.2 |
| 20260502114610 | 73 | 0 | 0.9 | 3.5 | 0.00 | 0.00 | 0.00 | 93 | 1010.3 |
| 20260502114057 | 73 | 0 | 0.0 | 1.7 | 0.00 | 0.00 | 0.00 | 93 | 1010.3 |
| 20260502113559 | 73 | 0 | 0.0 | 1.7 | 0.00 | 0.00 | 0.00 | 93 | 1010.3 |
| 20260502113057 | 72 | 0 | 0.0 | 0.0 | 0.00 | 0.00 | 0.00 | 92 | 1010.3 |
| 20260502112601 | 72 | 0 | 0.0 | 0.9 | 0.00 | 0.00 | 0.00 | 92 | 1010.3 |
| 20260502112055 | 72 | 0 | 0.0 | 0.9 | 0.00 | 0.00 | 0.00 | 92 | 1010.5 |
| 20260502111558 | 72 | 0 | 0.0 | 0.9 | 0.00 | 0.00 | 0.00 | 92 | 1010.4 |
| 20260502111058 | 72 | 0 | 0.0 | 0.0 | 0.00 | 0.00 | 0.00 | 92 | 1010.4 |
| 20260502110558 | 72 | 0 | 0.0 | 0.0 | 0.00 | 0.00 | 0.00 | 92 | 1010.4 |
| 20260502110056 | 72 | 0 | 0.0 | 0.0 | 0.00 | 0.00 | 0.00 | 92 | 1010.4 |
| 20260502105556 | 72 | 0 | 0.0 | 0.0 | 0.00 | 0.00 | 0.00 | 92 | 1010.5 |
| 20260502105055 | 72 | 0 | 0.0 | 0.0 | 0.00 | 0.00 | 0.00 | 92 | 1010.4 |
| 20260502104556 | 72 | 0 | 0.0 | 0.0 | 0.00 | 0.00 | 0.00 | 92 | 1010.5 |
| 20260502104059 | 72 | 0 | 0.0 | 0.0 | 0.00 | 0.00 | 0.00 | 92 | 1010.5 |
| 20260502103556 | 72 | 0 | 0.0 | 0.0 | 0.00 | 0.00 | 0.00 | 92 | 1010.5 |
| 20260502103059 | 72 | 0 | 0.0 | 0.0 | 0.00 | 0.00 | 0.00 | 92 | 1010.4 |
| 20260502102555 | 72 | 0 | 0.0 | 0.0 | 0.00 | 0.00 | 0.00 | 92 | 1010.4 |
| 20260502102055 | 72 | 0 | 0.0 | 0.0 | 0.00 | 0.00 | 0.00 | 92 | 1010.3 |
| 20260502101624 | 72 | 0 | 0.0 | 0.0 | 0.00 | 0.00 | 0.00 | 92 | 1010.2 |
| 20260502101056 | 72 | 0 | 0.0 | 0.0 | 0.00 | 0.00 | 0.00 | 92 | 1010.2 |
| 20260502100556 | 72 | 0 | 0.0 | 0.0 | 0.00 | 0.00 | 0.00 | 92 | 1010.4 |
| 20260502100104 | 71 | 0 | 0.0 | 0.0 | 0.00 | 0.00 | 0.00 | 92 | 1010.4 |
| 20260502091056 | 71 | 0 | 0.0 | 0.0 | 0.00 | 0.00 | 0.00 | 92 | 1010.4 |
| 20260502090555 | 71 | 0 | 0.0 | 0.0 | 0.00 | 0.00 | 0.00 | 92 | 1010.4 |
| 20260502090113 | 71 | 0 | 0.0 | 0.0 | 0.00 | 0.00 | 0.00 | 91 | 1010.3 |
| 20260502080109 | 70 | 0 | 0.0 | 0.0 | 0.00 | 0.00 | 0.00 | 91 | 1010.2 |
| 20260502071058 | 70 | 0 | 0.0 | 0.0 | 0.00 | 0.00 | 0.00 | 90 | 1010.4 |
| 20260502070559 | 70 | 0 | 0.0 | 0.0 | 0.00 | 0.00 | 0.00 | 90 | 1010.4 |
| 20260502070123 | 70 | 0 | 0.0 | 0.0 | 0.00 | 0.00 | 0.00 | 90 | 1010.6 |
| 20260502065559 | 70 | 0 | 0.0 | 0.0 | 0.00 | 0.00 | 0.00 | 90 | 1010.6 |
| 20260502065058 | 70 | 0 | 0.0 | 0.0 | 0.00 | 0.00 | 0.00 | 89 | 1010.6 |
| 20260502064559 | 70 | 0 | 0.0 | 0.0 | 0.00 | 0.00 | 0.00 | 89 | 1010.7 |
| 20260502064055 | 70 | 0 | 0.0 | 0.0 | 0.00 | 0.00 | 0.00 | 89 | 1010.6 |
| 20260502063558 | 70 | 0 | 0.0 | 0.0 | 0.00 | 0.00 | 0.00 | 89 | 1010.5 |
| 20260502063059 | 70 | 0 | 0.0 | 0.0 | 0.00 | 0.00 | 0.00 | 89 | 1010.5 |
| 20260502062556 | 70 | 0 | 0.0 | 0.0 | 0.00 | 0.00 | 0.00 | 89 | 1010.7 |
| 20260502062058 | 70 | 0 | 0.0 | 0.0 | 0.00 | 0.00 | 0.00 | 88 | 1010.6 |
| 20260502061606 | 70 | 0 | 0.0 | 0.0 | 0.00 | 0.00 | 0.00 | 88 | 1010.7 |
| 20260502061054 | 71 | 0 | 0.0 | 0.0 | 0.00 | 0.00 | 0.00 | 88 | 1010.7 |
| 20260502060558 | 71 | 0 | 0.0 | 0.0 | 0.00 | 0.00 | 0.00 | 88 | 1010.6 |
| 20260502055558 | 71 | 0 | 0.0 | 0.0 | 0.00 | 0.00 | 0.00 | 88 | 1010.7 |
| 20260502055100 | 71 | 0 | 0.0 | 0.0 | 0.00 | 0.00 | 0.00 | 87 | 1010.6 |
| 20260502054600 | 71 | 0 | 0.0 | 0.0 | 0.00 | 0.00 | 0.00 | 87 | 1010.6 |
| 20260502054058 | 71 | 0 | 0.0 | 0.0 | 0.00 | 0.00 | 0.00 | 87 | 1010.6 |
| 20260502053558 | 71 | 0 | 0.0 | 0.0 | 0.00 | 0.00 | 0.00 | 87 | 1010.5 |